Flag for U.S.A. Weather past 2 weeks in Boston, Massachusetts, U.S.A.

Now
66 °F

Passing clouds.


Feels Like: 66 °F
Forecast: 55 / 70 °F
Wind: 16 mph from West

Location: Logan International Airport

Current Time: Sep 22, 2014 at 6:47:26 PM

Latest Report: Sep 22, 2014 at 5:54 PM


Visibility: 10 mi

Pressure: 29.87 "Hg

Humidity: 40%

Dew point: 41 °F

Location of BostonLocation

Historic Weather in Boston — Graph

°F

Boston temperature yesterday

Maximum temperature yesterday: 81 °F (at 12:54 PM)
Minimum temperature yesterday: 63 °F (at 12:54 AM)
Average temperature yesterday: 70 °F

Past Weeks' High & Low Weather Summary

 TemperatureHumidityPressure
High81 °F (Sep 21, 12:54 PM)97% (Sep 11, 1:54 AM)30.43 "Hg (Sep 11, 1:54 AM)
Low47 °F (Sep 19, 6:54 AM)34% (Sep 22, 2:54 PM)29.53 "Hg (Sep 22, 1:54 AM)
Average62 °F70%30.09 "Hg
* Reported Sep 7 4:54 PM — Sep 22 4:54 PM, Boston, Weather by CustomWeather, © 2014

Note: Actual official high and low records may vary slightly from our data, if they occured in-between our weather recording intervals... More about our weather records

Advertising

Boston weather history for previous 24 hours

 ConditionsComfort  
Time TempWeatherWind HumidityBarometerVisibility
4:54 PM
Sep 22
68 °FPassing clouds.22 mph38%29.83 "Hg10 mi
3:54 PM70 °FPassing clouds.20 mph38%29.79 "Hg10 mi
2:54 PM72 °FPassing clouds.16 mph34%29.77 "Hg10 mi
1:54 PM72 °FPassing clouds.18 mph41%29.75 "Hg10 mi
12:54 PM73 °FPassing clouds.22 mph41%29.74 "Hg10 mi
11:54 AM72 °FPassing clouds.16 mph46%29.73 "Hg10 mi
10:54 AM71 °FScattered clouds.23 mph47%29.72 "Hg10 mi
9:54 AM70 °FPassing clouds.16 mph53%29.70 "Hg10 mi
8:54 AM68 °FPassing clouds.15 mph61%29.68 "Hg10 mi
7:54 AM66 °FPassing clouds.15 mph68%29.65 "Hg10 mi
6:54 AM65 °FPassing clouds.14 mph73%29.63 "Hg10 mi
5:54 AM67 °FPassing clouds.15 mph68%29.60 "Hg10 mi
4:54 AM68 °FPassing clouds.14 mph76%29.55 "Hg10 mi
3:54 AM69 °FPassing clouds.17 mph87%29.53 "Hg10 mi
2:54 AM69 °FPassing clouds.12 mph93%29.53 "Hg10 mi
1:54 AM69 °FMostly cloudy.13 mph93%29.53 "Hg10 mi
12:54 AM69 °FPassing clouds.7 mph96%29.54 "Hg10 mi
11:54 PM
Sep 21
70 °FPassing clouds.6 mph93%29.55 "Hg10 mi
10:54 PM70 °FMostly cloudy.6 mph93%29.56 "Hg10 mi
9:54 PM70 °FMostly cloudy.No wind93%29.58 "Hg10 mi
8:59 PM70 °FLight rain. Fog.6 mph94%29.60 "Hg6 mi
7:54 PM67 °FPartly cloudy.5 mph93%29.62 "Hg10 mi
6:54 PM68 °FBroken clouds.8 mph90%29.62 "Hg10 mi
Weather by CustomWeather, © 2014

See weather overviewHow to use our weather pages